Location: Unspecified
(0.0000°N, 0.0000°E)
Time: 06:49:47
(UTC+00:00)

Oscar 14 - Pass Details

Date: 17 June 2023
Orbit: 776 x 790 km, 98.9° (Epoch: 28 September)

Event Time Altitude Azimuth Distance (km) Brightness Sun altitude
Rises 18:31:57 0° 186° (S) 3,271 ? -7.1°
Reaches altitude 10° 18:34:29 10° 196° (SSW) 2,343 ? -7.7°
Maximum altitude 18:39:01 31° 257° (WSW) 1,344 ? -8.7°
Drops below altitude 10° 18:43:33 10° 319° (NW) 2,341 ? -9.8°
Sets 18:46:06 0° 329° (NNW) 3,268 ? -10.3°
